This demonstration page uses our WeatherBlox Daily Observations layout. Learn more.

41.55636, -103.73856

Hourly Observations for January 20, 2018

Temp ( °F °C ) Dew Point ( °F °C ) Humidity (%) Winds ( mph kmh ) Pressure ( in mb ) Visibility ( mi km ) Precip ( " mm )
12:53 am 00:53 Clear 33 0.6 29 -1.7 85 85 E 7 11 29.77 1008 10 16.09344 0 0
1:53 am 01:53 Clear 29 -1.7 26 -3.3 89 89 E 6 9 29.8 1009 10 16.09344 0 0
2:53 am 02:53 Clear 27 -2.8 25 -3.9 92 92 NE 3 6 29.77 1008 10 16.09344 0 0
3:53 am 03:53 Clear 26 -3.3 24 -4.4 92 92 NW 6 9 29.8 1009 10 16.09344 0 0
4:53 am 04:53 Clear 27 -2.8 25 -3.9 92 92 NNW 8 13 29.83 1010 10 16.09344 0 0
5:53 am 05:53 Clear 26 -3.3 25 -3.9 96 96 WNW 7 11 29.83 1010 10 16.09344 0 0
6:53 am 06:53 Clear 27 -2.8 25 -3.9 92 92 WNW 6 9 29.88 1012 10 16.09344 0 0
7:53 am 07:53 Sunny 27 -2.8 24 -4.4 89 89 W 9 15 29.88 1012 10 16.09344 0 0
8:53 am 08:53 Sunny 29 -1.7 26 -3.3 89 89 Calm 29.91 1013 10 16.09344 0 0
9:37 am 09:37 Mostly Cloudy 30 -1.1 27 -2.8 88 88 NW 7 11 30.03 1017 10 16.09344 0 0
9:53 am 09:53 Mostly Cloudy 32 0 28 -2.2 85 85 WNW 7 11 29.91 1013 10 16.09344 0 0
10:53 am 10:53 Cloudy 35 1.7 31 -0.6 85 85 NNE 7 11 29.91 1013 10 16.09344 0 0
11:53 am 11:53 Cloudy 35 1.7 31 -0.6 85 85 NE 9 15 29.88 1012 10 16.09344 0 0
12:53 pm 12:53 Cloudy 36 2.2 31 -0.6 82 82 ENE 9 15 29.88 1012 10 16.09344 0 0
1:53 pm 13:53 Cloudy 35 1.7 31 -0.6 85 85 NNE 10 17 29.88 1012 10 16.09344 0 0
2:53 pm 14:53 Cloudy 35 1.7 31 -0.6 85 85 NE 9 15 29.88 1012 10 16.09344 0 0
3:01 pm 15:01 Cloudy 35 1.7 31 -0.6 85 85 ENE 12 19 29.91 1013 10 16.09344 0 0
3:53 pm 15:53 Cloudy 35 1.7 31 -0.6 85 85 ENE 10 17 29.88 1012 10 16.09344 0 0
4:10 pm 16:10 Cloudy 36 2 30 -1 81 81 NE 9 15 29.94 1014 10 16.09344 0 0
4:53 pm 16:53 Cloudy 35 1.7 31 -0.6 85 85 ENE 8 13 29.91 1013 10 16.09344 0 0
5:04 pm 17:04 Cloudy 34 1.1 31 -0.6 89 89 ENE 8 13 30 1016 10 16.09344 0 0
5:38 pm 17:38 Cloudy 34 1 30 -1 87 87 ENE 8 13 30 1016 10 16.09344 0 0
5:53 pm 17:53 Cloudy 34 1.1 31 -0.6 89 89 ENE 7 11 29.94 1014 10 16.09344 0 0
6:26 pm 18:26 Cloudy 34 1 30 -1 87 87 ENE 7 11 30 1016 10 16.09344 0 0
6:53 pm 18:53 Cloudy 34 1.1 30 -1.1 85 85 ENE 7 11 29.94 1014 10 16.09344 0 0
7:30 pm 19:30 Cloudy 34 1.1 31 -0.6 89 89 ENE 10 17 30 1016 10 16.09344 0 0
7:53 pm 19:53 Cloudy 34 1.1 31 -0.6 89 89 ENE 8 13 29.94 1014 10 16.09344 0 0
8:53 pm 20:53 Cloudy 33 0.6 31 -0.6 92 92 ENE 8 13 29.94 1014 10 16.09344 0 0
9:29 pm 21:29 Cloudy 33 0.6 31 -0.6 92 92 ENE 10 17 30 1016 10 16.09344 0 0
9:53 pm 21:53 Cloudy 32 0 30 -1.1 92 92 NE 12 19 29.91 1013 10 16.09344 0 0
10:10 pm 22:10 Cloudy 32 0 30 -1.1 92 92 NE 14 22 30 1016 10 16.09344 0 0
10:18 pm 22:18 Cloudy 32 0 30 -1 93 93 NE 15 24 30 1016 10 16.09344 0 0
10:53 pm 22:53 Cloudy 32 0 30 -1.1 92 92 ENE 15 24 29.94 1014 10 16.09344 0 0
11:53 pm 23:53 Cloudy 31 -0.6 30 -1.1 96 96 NE 13 20 29.94 1014 10 16.09344 0 0

Powered by AerisWeather